Weather Service Report


186 
ASUS46 KSEW 301310
RWRWA 

WASHINGTON REGIONAL WEATHER ROUNDUP
NATIONAL WEATHER SERVICE SEATTLE WA
600 AM PDT FRI SEP 30 2016

NOTE:"FAIR" INDICATES FEW OR NO CLOUDS BELOW 12,000 FEET WITH NO 
SIGNIFICANT WEATHER AND/OR OBSTRUCTIONS TO VISIBILITY.

WAZ505-507>509-301400-
SEATTLE, TACOMA, EVERETT, AND VICINITY
  
CITY           SKY/WX    TMP DP  RH WIND       PRES   REMARKS
EVERETT        CLEAR     50  46  86 NE3       30.05S                  
BOEING FIELD   PTCLDY    48  45  89 SE3       30.05F                  
RENTON         CLEAR     46  43  89 SE6       30.05S                  
SEATAC AIRPORT PTCLDY    46  43  89 SE5       30.05F                  
JBLM-MCCHORD   MOCLDY    39  39 100 S3        30.05F                  
PUYALLUP       CLOUDY    41  41 100 CALM      30.05S                  
BREMERTON      CLEAR     39  37  93 CALM      30.08S                  
JBLM-FT LEWIS  CLOUDY    43  43 100 SE2       30.04F                  
TACOMA NARROWS CLOUDY    49  48  97 SW3       30.05F                  
$$
 
WAZ001-503-506-510-514-515-301400-
NORTH INTERIOR
  
CITY           SKY/WX    TMP DP  RH WIND       PRES   REMARKS
BELLINGHAM     CLOUDY    40  38  93 CALM      30.05S                  
FRIDAY HARBOR  CLOUDY    50  47  89 CALM      30.05S                  
EASTSOUND      CLEAR     43  41  93 CALM      30.03S                  
PORT ANGELES   CLEAR     47  42  83 W6        30.05S                  
EDIZ HOOK      NOT AVBL                                               
PORT TOWNSEND  FAIR      34  34 100 CALM      30.06F                  
NAS WHIDBEY    CLOUDY    48  44  86 E5        30.09S                  
ARLINGTON      CLOUDY    39  30  70 N3        30.08S VSB 1/4          
BURLINGTON     CLOUDY    46  45  93 CALM      30.06S                  
$$
 
WAZ020-022-039-040-504-511-512-301400-
SOUTHWEST INTERIOR
  
CITY           SKY/WX    TMP DP  RH WIND       PRES   REMARKS
SHELTON        FOG       46  44  93 W3        30.03F VSB 1/4          
OLYMPIA        CLOUDY    46  44  93 CALM      30.05F                  
CHEHALIS       FOG       45  45 100 SW3       30.06S VSB 1/2          
KELSO          CLOUDY    47  45  93 CALM      30.07S                  
VANCOUVER      CLEAR     43  41  93 CALM      30.05S                  
SCAPPOOSE, OR  PTCLDY    42  41  96 W3        30.05S                  
PORTLAND, OR   MOCLDY    48  45  89 NW3       30.05S                  
$$
 
WAZ021-516-517-301400-
WASHINGTON COAST
  
CITY           SKY/WX    TMP DP  RH WIND       PRES   REMARKS
FORKS          CLOUDY    43  40  89 E3        30.06S                  
HOQUIAM        CLOUDY    50  49  96 NE7       30.05F FOG              
ASTORIA, OR    CLOUDY    48  46  93 SE5       30.04F FOG              
$$
 
WAZ019-023-024-040-518-519-301400-
CASCADE MOUNTAINS AND COLUMBIA GORGE
  
CITY           SKY/WX    TMP DP  RH WIND       PRES   REMARKS
STAMPEDE PASS  CLEAR     37  34  89 VRB6      30.01F                  
TROUTDALE, OR  CLEAR     46  44  93 CALM      30.05S                  
THE DALLES, OR PTCLDY    58  42  55 NW9       29.97F                  
$$

WAZ026-027-041>044-520-521-301400-
EAST SLOPES
  
CITY           SKY/WX    TMP DP  RH WIND       PRES   REMARKS
OMAK           PTCLDY    53  39  59 N8        29.94R                  
WENATCHEE      MOCLDY    58  42  55 NW10      29.93R                  
ELLENSBURG     PTCLDY    51  38  60 NW14      29.95R                  
YAKIMA         MOCLDY    58  37  45 S5        29.96R                  
$$

WAZ028-034-035-301400-
COLUMBIA BASIN
  
CITY           SKY/WX    TMP DP  RH WIND       PRES   REMARKS
EPHRATA        MOCLDY    52  45  77 N5        29.93R                  
MOSES LAKE     MOCLDY    54  46  74 S10       29.94R                  
PASCO          MOCLDY    60  44  55 SW9       29.95R                  
HERMISTON, OR  MOCLDY    55  40  56 S7        29.96S                  
$$

WAZ036>038-301400-
NORTHEAST WASHINGTON
  
CITY           SKY/WX    TMP DP  RH WIND       PRES   REMARKS
SPOKANE GEIGER MOCLDY    59  45  59 W12       29.98R                  
SPOKANE FELTS  MOCLDY    58  51  78 NE5       29.96F                  
FAIRCHILD AFB  LGT RAIN  54  46  76 W8        29.99R                  
COEURDALENE,ID MOCLDY    54  53  97 N5        29.99F                  
DEER PARK      CLOUDY    56  46  69 NW6       29.97F                  
$$

WAZ029>033-301400-
SOUTHEAST WASHINGTON
  
CITY           SKY/WX    TMP DP  RH WIND       PRES   REMARKS
PULLMAN        PTCLDY    51  45  79 CALM      30.01R                  
LEWISTON, ID   PTCLDY    58  50  75 CALM      29.96R                  
WALLA WALLA    PTCLDY    58  41  53 S9        29.97F                  
PENDLETON, OR  PTCLDY    49  41  74 SE6       29.98S                  
$$
  

Return to Home page


Western Regional Climate Center, wrcc@dri.edu